Total_Precipitation_Accumulation
1.98 2.38 2.75 3.22 3.67 4.18 4.93 5.64 6.22 6.30 6.15 5.76 5.38 5.14 4.68 4.37 4.11 3.85 3.66 3.42 3.14 3.01 3.37 3.12 3.47 3.27 3.21 3.05 3.01 3.13 3.21 2.91 3.09 3.43 2.97 2.44 2.13 2.00 1.87 1.85 1.90 1.83 1.93
1.92 2.29 2.84 3.15 3.52 4.04 4.59 5.03 5.12 4.89 4.81 4.84 4.73 4.48 4.48 4.31 4.23 4.05 3.89 3.40 3.19 3.07 2.88 3.10 2.93 2.90 3.01 2.81 2.73 2.93 2.95 2.66 2.93 3.19 3.26 2.71 2.46 2.05 1.53 1.68 1.81 1.92 2.13
1.54 1.90 2.49 2.82 3.02 3.51 3.84 3.87 3.82 3.76 3.91 3.97 3.91 3.95 4.21 4.27 4.30 4.20 3.97 3.57 3.35 3.20 3.04 2.94 2.77 2.73 2.56 2.71 2.75 2.79 2.90 2.88 2.76 2.80 3.11 2.82 2.50 2.08 1.62 1.55 1.79 2.12 2.38
1.30 1.61 1.95 2.21 2.49 2.77 2.88 2.86 2.95 3.08 3.22 3.32 3.34 3.19 3.23 3.51 3.75 3.95 4.03 3.90 3.60 3.34 3.06 2.88 2.68 2.52 2.38 2.66 2.37 2.48 2.80 3.00 2.68 2.61 2.56 2.50 2.62 2.51 2.14 1.72 1.58 1.86 2.08
1.33 1.54 1.66 1.85 1.96 2.03 2.14 2.17 2.46 2.88 3.08 3.22 3.35 3.24 2.91 2.94 3.01 3.15 3.32 3.31 3.28 3.11 2.77 2.68 2.62 2.44 2.29 2.34 2.34 2.64 2.67 2.67 2.58 2.63 2.55 2.63 2.80 2.62 2.47 2.13 1.98 2.11 2.02
1.04 1.26 1.56 1.67 1.65 1.62 1.76 1.95 2.26 2.77 3.07 3.19 3.14 3.12 3.04 3.03 2.95 2.92 2.99 2.86 2.84 2.77 2.52 2.39 2.48 2.36 2.27 2.30 2.30 2.45 2.52 2.67 2.71 2.69 2.64 2.70 2.71 2.74 2.91 2.56 2.31 2.29 2.01
0.81 0.82 1.02 1.29 1.27 1.24 1.41 1.67 1.87 2.28 2.59 2.77 2.72 2.67 2.80 2.90 2.75 2.59 2.53 2.46 2.33 2.26 2.20 2.25 2.40 2.25 2.23 2.32 2.46 2.51 2.49 2.61 2.67 2.60 2.67 2.74 2.68 2.81 2.96 2.89 2.52 2.30 2.05
0.61 0.60 0.66 0.84 1.06 1.09 1.17 1.29 1.53 1.82 2.08 2.25 2.37 2.48 2.65 2.75 2.66 2.80 2.54 2.39 2.10 1.94 1.99 2.20 2.28 2.22 2.14 2.14 2.56 2.56 2.56 2.67 2.64 2.52 2.82 2.85 2.62 2.82 2.99 3.10 3.12 2.79 2.59
0.53 0.53 0.59 0.79 0.86 0.88 0.95 1.07 1.28 1.48 1.69 1.94 2.15 2.23 2.23 2.23 2.38 2.53 2.47 2.31 2.22 1.98 2.03 2.10 2.31 2.41 2.47 2.53 2.68 2.63 2.62 2.82 2.79 2.75 2.94 2.91 2.73 2.74 2.88 3.08 3.29 3.34 3.13
0.58 0.55 0.56 0.64 0.70 0.75 0.86 1.07 1.26 1.27 1.50 1.88 2.15 2.10 2.14 2.07 2.23 2.23 2.19 2.21 2.13 2.08 2.14 2.15 2.22 2.36 2.46 2.53 2.69 2.70 2.74 2.91 2.94 2.99 3.06 2.93 2.68 2.82 2.87 2.99 3.28 3.54 3.60
0.63 0.60 0.60 0.60 0.71 0.64 0.72 0.90 1.04 1.19 1.48 1.81 2.11 2.21 2.13 2.12 2.18 2.03 1.98 2.08 2.08 2.06 2.15 2.16 2.14 2.13 2.26 2.45 2.67 2.63 2.79 2.91 2.96 2.92 2.83 2.75 2.78 2.94 2.88 3.03 3.19 3.42 3.66
0.51 0.48 0.47 0.53 0.51 0.50 0.61 0.93 1.26 1.60 1.78 2.07 2.42 2.54 2.31 2.10 1.97 1.79 1.77 1.91 2.08 2.13 2.13 2.13 2.13 2.05 2.15 2.39 2.55 2.66 2.90 3.03 2.93 2.83 2.80 2.69 2.81 2.92 2.90 2.99 2.98 3.07 3.38
0.53 0.51 0.46 0.54 0.53 0.51 0.53 0.68 0.86 1.22 1.57 1.93 2.30 2.34 2.08 1.84 1.79 1.77 1.78 1.89 2.06 2.08 2.07 2.12 2.18 2.27 2.37 2.52 2.62 2.74 2.91 2.89 2.78 2.79 2.71 2.59 2.69 2.64 2.71 2.75 2.75 2.75 2.88
0.66 0.59 0.56 0.55 0.55 0.55 0.53 0.64 0.76 0.84 1.07 1.54 1.88 1.86 1.70 1.64 1.65 1.67 1.70 1.70 1.78 1.83 1.88 2.10 2.33 2.46 2.59 2.68 2.71 2.71 2.68 2.67 2.56 2.46 2.40 2.42 2.55 2.66 2.65 2.56 2.54 2.62 2.76
0.66 0.61 0.60 0.68 0.70 0.74 0.74 0.75 0.79 0.83 1.02 1.50 1.74 1.69 1.61 1.63 1.57 1.53 1.64 1.71 1.76 1.79 2.01 2.17 2.27 2.32 2.36 2.43 2.58 2.56 2.46 2.44 2.34 2.24 2.08 2.12 2.45 2.61 2.58 2.37 2.47 2.55 2.61
0.65 0.62 0.55 0.64 0.75 0.82 0.83 0.84 0.92 0.98 1.11 1.43 1.67 1.64 1.56 1.53 1.43 1.48 1.60 1.72 1.81 1.99 2.17 2.15 2.14 2.10 1.79 1.90 2.03 2.07 2.11 2.16 2.13 2.01 1.95 1.94 2.02 2.06 2.10 2.10 2.12 2.19 2.26
0.62 0.62 0.66 0.74 0.94 0.89 0.90 0.96 0.91 0.98 1.16 1.47 1.68 1.70 1.62 1.58 1.52 1.48 1.65 1.81 2.01 2.20 2.30 2.27 2.20 2.05 1.93 1.82 1.72 1.71 1.78 1.93 1.95 1.98 2.04 1.76 1.58 1.72 1.75 1.89 1.88 1.83 1.92
0.70 0.78 0.76 0.81 0.91 0.90 0.94 1.00 1.02 1.06 1.20 1.44 1.67 1.75 1.70 1.72 1.80 1.82 1.88 2.05 2.28 2.44 2.45 2.42 2.32 2.20 2.10 2.00 1.82 1.79 1.71 1.81 1.85 1.86 1.88 1.83 1.70 1.66 1.78 1.86 1.80 1.65 1.62
0.82 0.87 0.96 1.00 1.08 1.07 1.02 1.05 1.20 1.24 1.32 1.40 1.63 1.77 1.82 1.90 1.92 1.99 2.24 2.41 2.56 2.59 2.55 2.61 2.51 2.39 2.37 2.19 1.85 1.68 1.60 1.75 1.80 1.81 1.76 1.72 1.64 1.70 1.58 1.53 1.54 1.55 1.54
0.98 0.98 1.05 1.10 1.12 1.16 1.22 1.25 1.36 1.53 1.66 1.74 1.83 2.06 2.27 2.44 2.51 2.58 2.63 2.69 2.77 2.72 2.72 2.64 2.62 2.50 2.44 2.35 1.82 1.56 1.48 1.67 1.73 1.80 1.75 1.63 1.48 1.47 1.36 1.32 1.46 1.47 1.47
0.93 1.02 1.05 1.14 1.22 1.23 1.37 1.62 1.73 1.83 2.00 2.16 2.22 2.43 2.76 2.95 2.93 2.99 2.88 2.77 2.77 2.78 2.78 2.68 2.58 2.50 2.40 2.31 1.87 1.66 1.61 1.75 1.84 1.81 1.73 1.66 1.54 1.34 1.30 1.25 1.29 1.36 1.36
0.87 0.99 1.07 1.15 1.33 1.58 1.77 2.04 2.18 2.21 2.30 2.45 2.64 2.89 3.14 3.00 2.92 3.07 2.96 2.94 3.00 2.98 2.87 2.77 2.65 2.64 2.55 2.31 1.97 1.73 1.72 1.81 1.88 1.93 1.89 1.80 1.58 1.33 1.26 1.18 1.15 1.14 1.07
0.86 0.96 1.05 1.22 1.43 1.73 2.11 2.36 2.42 2.54 2.57 2.64 2.80 2.92 3.00 3.13 3.26 3.31 3.17 3.07 3.05 2.99 2.80 2.69 2.52 2.41 2.47 2.45 2.03 1.72 1.74 1.79 1.78 1.93 1.99 1.73 1.48 1.32 1.16 1.15 1.15 1.04 0.94
0.95 0.99 1.10 1.30 1.59 1.89 2.24 2.39 2.43 2.45 2.46 2.50 2.52 2.62 2.77 2.90 3.02 3.26 3.29 3.16 2.99 2.88 2.79 2.71 2.55 2.43 2.42 2.38 2.03 1.71 1.67 1.73 1.70 1.75 1.83 1.69 1.52 1.36 1.21 1.14 1.10 1.03 1.08
1.03 1.13 1.24 1.34 1.49 1.75 2.02 2.13 2.28 2.36 2.50 2.54 2.47 2.42 2.44 2.58 2.72 2.83 2.92 2.86 2.81 2.63 2.49 2.35 2.27 2.20 2.19 2.20 1.99 1.76 1.69 1.78 1.85 1.82 1.81 1.77 1.62 1.47 1.35 1.30 1.33 1.38 1.38
1.00 1.13 1.27 1.43 1.58 1.75 1.93 2.02 2.19 2.32 2.43 2.44 2.33 2.31 2.29 2.36 2.41 2.41 2.37 2.24 2.15 1.99 1.80 1.70 1.63 1.60 1.65 1.79 1.64 1.51 1.56 1.72 1.83 1.72 1.66 1.75 1.72 1.62 1.53 1.48 1.48 1.48 1.44